Stündliche Wetter Warszewo

Heute, 20 Oktober, Dienstag

Zeit Temperatur Niederschläge Wind Luftdruck Luftfeuchtigkeit
00:00 +4°C° 0 mm 4 m/S 756 mmHg 89%
01:00 +4°C° 0 mm 4 m/S 757 mmHg 89%
02:00 +4°C° 0 mm 4 m/S 757 mmHg 90%
03:00 +3°C° 0 mm 4 m/S 757 mmHg 92%
04:00 +3°C° 0 mm 3 m/S 757 mmHg 93%
05:00 +3°C° 0 mm 3 m/S 757 mmHg 93%
06:00 +3°C° 0 mm 3 m/S 757 mmHg 92%
07:00 +3°C° 0 mm 3 m/S 758 mmHg 92%
08:00 +5°C° 0 mm 3 m/S 757 mmHg 87%
09:00 +7°C° 0 mm 3 m/S 757 mmHg 81%
10:00 +8°C° 0 mm 3 m/S 757 mmHg 76%
11:00 +8°C° 0 mm 4 m/S 757 mmHg 72%
12:00 +8°C° 0 mm 4 m/S 757 mmHg 69%
13:00 +9°C° 0 mm 5 m/S 756 mmHg 65%
14:00 +9°C° 0 mm 5 m/S 756 mmHg 66%
15:00 +8°C° 0 mm 5 m/S 755 mmHg 68%
16:00 +8°C° 0 mm 5 m/S 754 mmHg 70%
17:00 +8°C° 0 mm 5 m/S 754 mmHg 71%
18:00 +8°C° 0 mm 6 m/S 753 mmHg 73%
19:00 +8°C° 0 mm 6 m/S 753 mmHg 75%
20:00 +8°C° 0 mm 6 m/S 752 mmHg 75%
21:00 +8°C° 0 mm 6 m/S 752 mmHg 75%
22:00 +8°C° 0 mm 6 m/S 751 mmHg 74%
23:00 +8°C° 0 mm 6 m/S 751 mmHg 74%

Morgen, 21 Oktober, Mittwoch

Zeit Temperatur Niederschläge Wind Luftdruck Luftfeuchtigkeit
00:00 +8°C° 0 mm 5 m/S 751 mmHg 74%
01:00 +8°C° 0 mm 5 m/S 750 mmHg 74%
02:00 +8°C° 0.2 mm 5 m/S 750 mmHg 78%
03:00 +8°C° 0.2 mm 5 m/S 750 mmHg 83%
04:00 +8°C° 0.2 mm 5 m/S 749 mmHg 87%
05:00 +8°C° 0.2 mm 5 m/S 749 mmHg 89%
06:00 +8°C° 0.2 mm 4 m/S 750 mmHg 90%
07:00 +8°C° 0.2 mm 4 m/S 750 mmHg 91%
08:00 +8°C° 0 mm 4 m/S 750 mmHg 89%
09:00 +10°C° 0 mm 4 m/S 750 mmHg 87%
10:00 +10°C° 0 mm 5 m/S 750 mmHg 86%
11:00 +10°C° 0 mm 5 m/S 750 mmHg 85%
12:00 +11°C° 0 mm 4 m/S 750 mmHg 85%
13:00 +12°C° 0 mm 4 m/S 750 mmHg 85%
14:00 +11°C° 0.1 mm 4 m/S 750 mmHg 87%
15:00 +11°C° 0.1 mm 4 m/S 750 mmHg 89%
16:00 +10°C° 0.1 mm 4 m/S 750 mmHg 91%
17:00 +10°C° 0.3 mm 4 m/S 749 mmHg 88%
18:00 +10°C° 0.3 mm 4 m/S 749 mmHg 85%
19:00 +9°C° 0.3 mm 5 m/S 749 mmHg 83%
20:00 +9°C° 0 mm 5 m/S 749 mmHg 82%
21:00 +9°C° 0 mm 6 m/S 748 mmHg 81%
22:00 +9°C° 0 mm 6 m/S 748 mmHg 80%
23:00 +9°C° 0 mm 6 m/S 748 mmHg 79%

übermorgen, 22 Oktober, Donnerstag

Zeit Temperatur Niederschläge Wind Luftdruck Luftfeuchtigkeit
00:00 +9°C° 0 mm 7 m/S 748 mmHg 79%
01:00 +9°C° 0 mm 7 m/S 748 mmHg 78%
02:00 +9°C° 0 mm 7 m/S 748 mmHg 78%
03:00 +10°C° 0 mm 7 m/S 747 mmHg 77%
04:00 +10°C° 0 mm 7 m/S 747 mmHg 76%
05:00 +10°C° 0 mm 7 m/S 747 mmHg 77%
06:00 +10°C° 0 mm 7 m/S 747 mmHg 78%
07:00 +10°C° 0 mm 7 m/S 748 mmHg 79%
08:00 +11°C° 0 mm 8 m/S 748 mmHg 77%
09:00 +13°C° 0 mm 8 m/S 749 mmHg 76%
10:00 +15°C° 0 mm 8 m/S 749 mmHg 74%
11:00 +15°C° 0 mm 7 m/S 749 mmHg 73%
12:00 +16°C° 0 mm 7 m/S 749 mmHg 71%
13:00 +17°C° 0 mm 6 m/S 750 mmHg 70%
14:00 +16°C° 0 mm 6 m/S 750 mmHg 72%
15:00 +16°C° 0 mm 5 m/S 749 mmHg 74%
16:00 +15°C° 0 mm 5 m/S 749 mmHg 76%
17:00 +15°C° 0 mm 5 m/S 750 mmHg 79%
18:00 +14°C° 0 mm 5 m/S 750 mmHg 82%
19:00 +13°C° 0 mm 5 m/S 750 mmHg 84%
20:00 +13°C° 0 mm 5 m/S 750 mmHg 85%
21:00 +13°C° 0 mm 5 m/S 750 mmHg 86%
22:00 +13°C° 0 mm 5 m/S 750 mmHg 87%
23:00 +13°C° 0 mm 5 m/S 749 mmHg 87%

23 Oktober, Freitag

Zeit Temperatur Niederschläge Wind Luftdruck Luftfeuchtigkeit
00:00 +13°C° 0 mm 5 m/S 749 mmHg 87%
01:00 +12°C° 0 mm 5 m/S 749 mmHg 87%
02:00 +13°C° 0.2 mm 5 m/S 748 mmHg 85%
03:00 +13°C° 0.2 mm 6 m/S 748 mmHg 83%
04:00 +13°C° 0.2 mm 6 m/S 748 mmHg 81%
05:00 +13°C° 0.4 mm 6 m/S 747 mmHg 83%
06:00 +12°C° 0.4 mm 7 m/S 747 mmHg 86%
07:00 +12°C° 0.4 mm 7 m/S 747 mmHg 88%
08:00 +14°C° 0 mm 7 m/S 747 mmHg 84%
09:00 +14°C° 0 mm 7 m/S 748 mmHg 80%
10:00 +15°C° 0 mm 7 m/S 748 mmHg 76%
11:00 +15°C° 0 mm 7 m/S 748 mmHg 71%
12:00 +16°C° 0 mm 6 m/S 748 mmHg 65%
13:00 +16°C° 0 mm 6 m/S 748 mmHg 60%
14:00 +15°C° 0 mm 5 m/S 748 mmHg 65%
15:00 +14°C° 0 mm 4 m/S 748 mmHg 69%
16:00 +13°C° 0 mm 3 m/S 748 mmHg 73%
17:00 +12°C° 0 mm 3 m/S 748 mmHg 77%
18:00 +12°C° 0 mm 2 m/S 749 mmHg 80%
19:00 +12°C° 0 mm 2 m/S 749 mmHg 84%
20:00 +10°C° 0 mm 2 m/S 749 mmHg 86%
21:00 +10°C° 0 mm 2 m/S 749 mmHg 87%
22:00 +10°C° 0 mm 2 m/S 749 mmHg 89%
23:00 +10°C° 0 mm 2 m/S 748 mmHg 89%

24 Oktober, Samstag

Zeit Temperatur Niederschläge Wind Luftdruck Luftfeuchtigkeit
00:00 +10°C° 0 mm 2 m/S 748 mmHg 90%
01:00 +9°C° 0 mm 2 m/S 748 mmHg 90%
02:00 +10°C° 0 mm 2 m/S 748 mmHg 90%
03:00 +10°C° 0 mm 2 m/S 747 mmHg 90%
04:00 +10°C° 0 mm 3 m/S 747 mmHg 91%
05:00 +10°C° 0 mm 3 m/S 747 mmHg 92%
06:00 +10°C° 0 mm 3 m/S 746 mmHg 92%
07:00 +10°C° 0 mm 3 m/S 746 mmHg 93%
08:00 +10°C° 0.6 mm 3 m/S 746 mmHg 92%
09:00 +11°C° 0.6 mm 4 m/S 746 mmHg 91%
10:00 +11°C° 0.6 mm 4 m/S 746 mmHg 90%
11:00 +10°C° 1.7 mm 5 m/S 746 mmHg 88%
12:00 +10°C° 1.7 mm 6 m/S 746 mmHg 87%
13:00 +9°C° 1.7 mm 7 m/S 746 mmHg 85%
14:00 +9°C° 0.2 mm 7 m/S 746 mmHg 82%
15:00 +9°C° 0.2 mm 8 m/S 747 mmHg 79%
16:00 +9°C° 0.2 mm 8 m/S 747 mmHg 75%
17:00 +9°C° 0 mm 8 m/S 748 mmHg 75%
18:00 +7°C° 0 mm 8 m/S 749 mmHg 75%
19:00 +8°C° 0 mm 7 m/S 749 mmHg 75%
20:00 +6°C° 0 mm 7 m/S 750 mmHg 77%
21:00 +7°C° 0 mm 6 m/S 751 mmHg 78%
22:00 +5°C° 0 mm 6 m/S 751 mmHg 80%
23:00 +5°C° 0 mm 6 m/S 751 mmHg 82%

25 Oktober, Sonntag

Zeit Temperatur Niederschläge Wind Luftdruck Luftfeuchtigkeit
00:00 +6°C° 0 mm 5 m/S 752 mmHg 85%
01:00 +6°C° 0 mm 5 m/S 752 mmHg 88%
02:00 +5°C° 0 mm 5 m/S 752 mmHg 89%
03:00 +5°C° 0 mm 4 m/S 752 mmHg 91%
04:00 +5°C° 0 mm 4 m/S 753 mmHg 93%
05:00 +4°C° 0 mm 4 m/S 753 mmHg 93%
06:00 +4°C° 0 mm 3 m/S 753 mmHg 93%
07:00 +4°C° 0 mm 3 m/S 753 mmHg 94%
08:00 +5°C° 0 mm 3 m/S 754 mmHg 88%
09:00 +8°C° 0 mm 3 m/S 754 mmHg 81%
10:00 +8°C° 0 mm 4 m/S 754 mmHg 75%
11:00 +10°C° 0 mm 4 m/S 754 mmHg 71%
12:00 +10°C° 0 mm 4 m/S 754 mmHg 67%
13:00 +11°C° 0 mm 4 m/S 754 mmHg 63%
14:00 +11°C° 0 mm 4 m/S 753 mmHg 67%
15:00 +10°C° 0 mm 3 m/S 753 mmHg 70%
16:00 +9°C° 0 mm 3 m/S 753 mmHg 73%
17:00 +7°C° 0 mm 4 m/S 753 mmHg 76%
18:00 +7°C° 0 mm 4 m/S 753 mmHg 78%
19:00 +6°C° 0 mm 4 m/S 753 mmHg 80%
20:00 +6°C° 0 mm 4 m/S 753 mmHg 80%
21:00 +6°C° 0 mm 5 m/S 753 mmHg 79%
22:00 +6°C° 0 mm 5 m/S 753 mmHg 79%
23:00 +6°C° 0 mm 5 m/S 753 mmHg 79%

26 Oktober, Montag

Zeit Temperatur Niederschläge Wind Luftdruck Luftfeuchtigkeit
00:00 +6°C° 0 mm 5 m/S 753 mmHg 79%
01:00 +5°C° 0 mm 5 m/S 752 mmHg 79%
02:00 +5°C° 0 mm 5 m/S 752 mmHg 78%
03:00 +5°C° 0 mm 5 m/S 752 mmHg 78%
04:00 +4°C° 0 mm 6 m/S 752 mmHg 77%
05:00 +4°C° 0 mm 6 m/S 752 mmHg 78%
06:00 +4°C° 0 mm 6 m/S 752 mmHg 79%
07:00 +4°C° 0 mm 6 m/S 752 mmHg 80%
08:00 +5°C° 0 mm 6 m/S 752 mmHg 75%
09:00 +7°C° 0 mm 6 m/S 751 mmHg 70%
10:00 +9°C° 0 mm 6 m/S 751 mmHg 65%
11:00 +9°C° 0 mm 6 m/S 751 mmHg 64%
12:00 +10°C° 0 mm 5 m/S 751 mmHg 63%
13:00 +12°C° 0 mm 5 m/S 751 mmHg 62%
14:00 +10°C° 0 mm 5 m/S 751 mmHg 66%
15:00 +10°C° 0 mm 4 m/S 750 mmHg 70%
16:00 +8°C° 0 mm 4 m/S 750 mmHg 74%
17:00 +8°C° 0 mm 4 m/S 750 mmHg 77%
18:00 +7°C° 0 mm 4 m/S 750 mmHg 80%
19:00 +6°C° 0 mm 4 m/S 750 mmHg 84%
20:00 +6°C° 0 mm 4 m/S 751 mmHg 85%
21:00 +6°C° 0 mm 4 m/S 751 mmHg 85%
22:00 +6°C° 0 mm 4 m/S 751 mmHg 86%
23:00 +7°C° 0 mm 4 m/S 751 mmHg 87%
Mehr zeigen

Wir brauchen deine Erlaubnis

Meteoprog und unser Service Anbieter werden persönliche Daten aufbewahren, so wie Cookies, Geräte Bezeichnung oder ähnliche Technologien von deinem Gerät und Prozess, so wie Persönliche Daten Inhalte und Werbungen, genauso wie social Media und den Verkehr zu analysieren.

  • Aufbewahrung und/oder Zugang zu deiner Geräte Informationen.

    Cookies, Geräte Bezeichnung oder andere Informationen, können aufbewahrt oder Zugang zu deinem Gerät erhalten, für den Grund, der oben angegeben wird.

  • Personalisierte Werbung und Inhalte, Messungen, Einblick in das Publikum und Produkt Entwicklung.

    Werbungen und Inhalte können personalisiert werden, basierend auf ein Profil. Mehr Daten können besser personalisierte Werbungen und Inhalte hinzufügen. Werbung und Inhalte können gezeigt und gemessen werden. Einblicke über das Publikum, welche die Werbung gesehen haben und den Inhalt, können abgeleitet werden. So wie Daten können genutzt werden, um es zu verbessern oder die Benutzer Erfahrung zu verbessern das System und die Software.

Wenn du “Ich stimme zu” klickst, erlaubst du uns, die Cookies zu benutzen die Geräte Bezeichnung, den Web oder ähnliche Technologien zu benutzen. Deine Settings, können in deinem Gerät bei deinem Browser geändert werden.

Für den bestimmten Zweck, berechtigten Interessen beruhen darauf, mehr als auf den Inhalt. Du kannst mehr darüber in unseren Privaten und Cookie Politik lesen.